Regional Weather Roundup
Issued by NWS

Home | Current Version | Previous Version | Text Only | Print | Product List | Glossary On
Versions: 1 2 3 4 5 6 7 8 9 10 11 12 13 14 15 16 17 18 19 20 21 22 23 24 25 26 27 28 29 30 31 32 33 34 35 36 37 38 39 40 41 42 43 44 45 46 47 48 49 50
000
ASUS45 KREV 162110
RWRNV
NEVADA REGIONAL WEATHER ROUNDUP
NATIONAL WEATHER SERVICE RENO NV
200 PM PDT TUE SEP 16 2014

NOTE: "FAIR" INDICATES FEW OR NO CLOUDS BELOW 12,000 FEET WITH NO
SIGNIFICANT WEATHER AND/OR OBSTRUCTIONS TO VISIBILITY.

NVZ001-003-004-162200-
WESTERN NEVADA

CITY           SKY/WX    TMP DP  RH WIND       PRES   REMARKS
RENO           MOSUNNY   91  31  11 S20G35    30.00F
MINDEN         FAIR      90  32  12 SW18G24   30.04F
SLIDE MTN        N/A     61  37  41 SW23        N/A
FALLON         MOSUNNY   93  40  15 MISG      29.95F
LOVELOCK       SUNNY     93  40  15 SW17G24   29.97F
HAWTHORNE      SUNNY     93  36  13 CALM      29.95F
$$

NVZ002-CAZ072-073-162200-
NORTHERN AND CENTRAL SIERRA

CITY           SKY/WX    TMP DP  RH WIND       PRES   REMARKS
S. LAKE TAHOE  SUNNY     81  29  15 S15G25    30.15F
TRUCKEE        PTSUNNY   81  34  18 SW15G22   30.13F
SQUAW VLY 8000 NOT AVBL
SUSANVILLE     SUNNY     88  30  12 SW14G24   29.99
BLUE CANYON    SUNNY     76  30  18 S14G24    30.14F
MAMMOTH LAKES  PTSUNNY   81  36  19 SW15G24   30.23F
BRIDGEPORT     FAIR      82  31  15 SW17G26   30.17F
$$

NVZ030-031-036-162200-
NORTHERN NEVADA

CITY           SKY/WX    TMP DP  RH WIND       PRES   REMARKS
ELKO           MOSUNNY   90  33  13 W15G21    30.04F
WINNEMUCCA     SUNNY     91  36  14 SW9       29.99F
WENDOVER       SUNNY     86  41  20 E8        30.02F
$$

NVZ035-037-162200-
CENTRAL NEVADA

CITY           SKY/WX    TMP DP  RH WIND       PRES   REMARKS
ELY            MOSUNNY   85  33  15 SW12      30.17F
EUREKA           N/A     88  32  13 S14G20    30.10F
$$

NVZ013-014-162200-
SOUTH CENTRAL NEVADA

CITY           SKY/WX    TMP DP  RH WIND       PRES   REMARKS
TONOPAH        SUNNY     90  37  15 S15G25    30.09F
$$

NVZ017-020-022-162200-
SOUTHERN NEVADA

CITY           SKY/WX    TMP DP  RH WIND       PRES   REMARKS
LAS VEGAS      MOSUNNY  100  55  22 SE9       29.83F
N. LAS VEGAS   SUNNY     99  55  23 SE10      29.86F
NELLIS AFB     SUNNY     98  61  29 SE8       29.84F
HENDERSON      SUNNY    100  56  23 E9        29.89F
MERCURY        MOSUNNY   97  46  17 W9        29.93F
$$



USA.gov is the U.S. government's official web portal to all federal, state and local government web resources and services.